Showing default

HAWK-5A, 52757

Orbit data source: Space-Track

HAWK-5A, 52757 is a payload satellite owned by HawkEye 360 (US) in SSO that was launched on Wed, 25 May 2022 UTC via an FALCON 9 launch vehicle from the Air Force Eastern Test Range (AFETR). Payload-class satellites include a variety of spacecraft equipped with specific instruments for various scientific and technological missions. These include communications satellites like Starlink; space stations such as the ISS; scientific satellites like the Hubble; Earth observation satellites from companies like Planet Labs, Umbra, and HawkEye 360; GPS; miniature CubeSats for education and research; and military/defense satellites.

Loading next visibility...
Identifier
52757, 2022-057AB
Orbit
SSO
Country
Flag of USUS
Related business
Manufacturer
UTIAS-SFL
Mission
Operational Commercial Sigint
Bus & Motor
DEFIANT, Unknown motor
Mass
31 kg wet, 30 kg dry
Launch date (UTC)
2022-05-25 (4 years ago)
Launch vehicle
FALCON 9
Launch site
Air Force Eastern Test Range (AFETR)
Object type
Payload
Rocket body
Debris
Shape & HBR
Box + 2 Pan, 1.0 m
Radar Cross Section
0.348 m², Medium (>0.1 m² and < 1m²)

Expand to show TLE details & history
Last TLE update: 2 days ago

TLE from 2 days ago
0 HAWK-5A
1 52757U 22057AB  26171.39767378  .00016061  00000-0  27329-3 0  9999
2 52757  97.6616 330.4524 0005380  69.2298 290.9529 15.51490262226849
Epoch: 2026-06-20T09:32Z
TLE epoch observation values (Epoch: 2026-06-20T09:32:39.014Z)
Latitude
-0.00007°
Longitude
-81.32303°
Altitude
414.195 km
Speed
7.663 km/s
True Right ascension
22h 01m 48s
True Declination
0° 00' 00"
Sunlit
Object was in full shadow at epoch
Visualization orbit readout
Latitude
Unknown
Longitude
Unknown
Altitude
Unknown
Speed
Unknown
Apparent Right ascension
Unknown
Apparent Declination
Unknown
Sunlit
N/A
Visualization observer readout
Local Sidereal Time
23:21:02
Azimuth
Unknown
Elevation
Unknown
Doppler factor
Unknown
Orbital elements
Apogee altitude
412.961 km
Perigee altitude
405.658 km
Semi-major axis
6,787.446 km
Eccentricity
0.00054
Inclination
97.6616°
RAAN
330.4524°
Arg. of periapsis
69.2298°
True anomaly
290.89531°
Mean anomaly
290.9529°
Eccentric anomaly
290.92411°
Mean motion
3.88136 °/min
Orbital period
92.75 mins
BSTAR
0.00027329
Loading maneuver chart data...
Computing Atmospheric mass density...

Documentation

Showing up to 5 results
|